AirNav   Air Wisconsin Up To $57,000 Bonus
 
 806 users online  

9A0 Lumpkin County-Wimpys Airport
Dahlonega, Georgia, USA

GOING TO DAHLONEGA?


FAA INFORMATION EFFECTIVE 03 DECEMBER 2020

Location

FAA Identifier: 9A0
Lat/Long: 34-34-59.3000N 084-01-11.9000W
34-34.988333N 084-01.198333W
34.5831389,-84.0199722
(estimated)
Elevation: 1311 ft. / 400 m (estimated)
Variation: 03W (1985)
From city: 3 miles NW of DAHLONEGA, GA
Time zone: UTC -5 (UTC -4 during Daylight Saving Time)
Zip code: 30533

Airport Operations

Airport use: Open to the public
Activation date: 08/1956
Control tower: no
ARTCC: ATLANTA CENTER
FSS: MACON FLIGHT SERVICE STATION
NOTAMs facility: MCN (NOTAM-D service available)
Attendance: UNATNDD
Wind indicator: yes
Segmented circle: no
Lights: RDO CTL

Airport Communications

CTAF: 122.9
WX AWOS-3PT at DZJ (16 nm N): 119.325 (706-745-9271)

Nearby radio navigation aids

VOR radial/distance  VOR name  Freq  Var
HRSr193/22.2HARRIS VORTAC109.8000E
ODFr259/36.3FOOTHILLS VOR/DME113.4000E

 
NDB name  Hdg/Dist  Freq  Var  ID
FLOWERY BRANCH349/23.536503WFKV ..-. -.- ...-
CHERO054/30.541505WDJD -.. .--- -..

Airport Services

Fuel available: 100LL
24 HOUR SELF SERVE WITH CREDIT CARD.
Parking: tiedowns
Airframe service: NONE
Powerplant service: NONE
Bottled oxygen: NONE
Bulk oxygen: NONE

Runway Information

Runway 15/33

Dimensions: 3090 x 50 ft. / 942 x 15 m
Surface: asphalt, in good condition
Weight bearing capacity: 
Single wheel: 12.0
Runway edge lights: non-standard
NSTD LIRL THE LENGTH OF THE RY. NO THLD LIGHTS. LIRL OTS INDEFLY.
RUNWAY 15  RUNWAY 33
Latitude: 34-35.210333N34-34.767167N
Longitude: 084-01.350167W084-01.046000W
Traffic pattern: leftleft
Displaced threshold: 754 ft.695 ft.
Markings: basic, in good conditionbasic, in good condition
Obstructions: 137 ft. trees, 1236 ft. from runway, 225 ft. left of centerline, 8:1 slope to clear
15:1 APCH SLP TO DSPLCD THLD, TREES 450 FT OUT & 150 FT RIGHT.
22 ft. trees, 310 ft. from runway, 50 ft. right of centerline, 5:1 slope to clear
APCH SLOPE 25:1 TO DSPLCD THLD, TREELINE 2,325 FROM DSPLCD THLD.

Airport Ownership and Management from official FAA records

Ownership: Publicly-owned
Owner: LUMPKIN COUNTY AIRPORT AUTHORITY
99 COURTHOUSE HILL, SUITE H
DAHLONEGA, GA 30533
Phone (706) 265-0284
Manager: JIMMY BERRONG
99 COURTHOUSE HILL, SUITE H
DAHLONEGA, GA 30533
Phone (706) 265-0284
AIRPORT ADDRESS: 1682 CAMP WAHSEGA RD

Airport Operational Statistics

Aircraft based on the field: 26
Single engine airplanes: 25
Multi engine airplanes: 1
    
Aircraft operations: avg 107/week *
54% local general aviation
36% transient general aviation
11% military
* for 12-month period ending 31 December 2018

Additional Remarks

ARPT CLSD TO ACFT AT NIGHT, DAYTIME USE ONLY.
DEER & WILDLIFE ON OR INVOF ARPT.
FOR CD CTC ATLANTA ARTCC AT 770-210-7692.

Instrument Procedures

There are no published instrument procedures at 9A0.

Some nearby airports with instrument procedures:

KDZJ - Blairsville Airport (16 nm N)
KGVL - Lee Gilmer Memorial Airport (21 nm SE)
KJZP - Pickens County Airport (23 nm W)
KAJR - Habersham County Airport (23 nm E)
49A - Gilmer County Airport (25 nm W)
 
Loc | Ops | Rwys | IFR | FBO | Links
Com | Nav | Svcs | Stats | Notes
Area around 9A0 (Lumpkin County-Wimpys Airport)
 
Road maps at: MapQuest Bing Google
 
Aerial photo
WARNING: Photo may not be current or correct
Aerial photo of 9A0 (Lumpkin County-Wimpys Airport)
Photo by Jerry Morris
Photo taken 17-Sep-2015
looking south.

Do you have a better or more recent aerial photo of Lumpkin County-Wimpys Airport that you would like to share? If so, please send us your photo.

 
Sectional chart

 
Airport distance calculator
Flying to Lumpkin County-Wimpys Airport? Find the distance to fly.

From to 9A0

Sunrise and sunset
Times for 03-Dec-2020
 Local
(UTC-5)
 Zulu
(UTC)
Morning civil twilight07:0112:01
Sunrise07:2812:28
Sunset17:2422:24
Evening civil twilight17:5222:52

Current date and time
Zulu (UTC)  04-Dec-2020 04:25:00
Local (UTC-5)  03-Dec-2020 23:25:00
 
METAR
KDZJ 
16nm N 
040355Z AUTO 11004KT 10SM SCT070 BKN110 08/M03 A3023 RMK AO2 T00791034
KGVL 
21nm SE 
040353Z AUTO 11003KT 10SM OVC090 09/M03 A3026 RMK AO2 SLP245 T00891028
KJZP 
23nm W 
040355Z AUTO 18007KT 10SM BKN095 BKN120 08/M02 A3025 RMK AO2 T00801019
KAJR 
23nm E 
040355Z AUTO 00000KT 7SM OVC080 09/00 A3024 RMK AO2 T00861003
K49A 
25nm W 
040355Z AUTO 00000KT 10SM SCT085 BKN110 07/M01 A3023 RMK AO2 T00711009
KCNI 
26nm SW 
040355Z AUTO 10005KT 10SM OVC100 08/00 A3023 RMK AO2
TAF
KPDK 
44nm S 
032048Z 0321/0418 16004KT P6SM BKN110 FM041000 11005KT P6SM BKN070 FM041100 11005KT P6SM BKN030 FM041200 11005KT P6SM BKN012 PROB30 0412/0416 2SM SHRA BR OVC005 FM041600 13006KT 5SM -SHRA BR OVC008
KRYY 
45nm SW 
032048Z 0321/0418 10008KT P6SM BKN110 FM040800 12006KT P6SM BKN080 FM041100 12006KT P6SM BKN030 PROB30 0411/0415 4SM SHRA BR OVC009 FM041500 13008KT 5SM -SHRA BR OVC008
KMGE 
47nm SW 
032200Z 0322/0504 12009KT 9999 BKN100 BKN250 QNH3018INS BECMG 0408/0409 11005KT 8000 BR BKN015 OVC070 QNH3010INS BECMG 0411/0412 11007KT 4800 BR OVC008 QNH3007INS BECMG 0414/0415 12009KT 9999 -SHRA OVC005 QNH3001INS BECMG 0418/0419 13012KT 6000 -SHRA BR BKN009 OVC020 QNH2995INS BECMG 0422/0423 28012G22KT 9999 VCSH BKN015 OVC050 QNH2993INS TX14/0420Z TN04/0412Z
NOTAMs
Click for the latest NOTAMs
NOTAMs are issued by the DoD/FAA and will open in a separate window not controlled by AirNav.

 

 
 

FBO, Fuel Providers, and Aircraft Ground Support

  
 Business Name 
 
 Contact 
 
 Services / Description 
 
Fuel Prices
 
Comments
  
Lumpkin County-Wimpy's Airport 706-265-0284
no information available

If you are affiliated with Lumpkin County-Wimpy's Airport and would like to show here your services, contact info, web link, logo, and more, click here
100LL
SS $4.39 
 Updated 01-Dec-2020
 
   write
SS=Self service
Update Fuel Prices
 

Would you like to see your business listed on this page?

 If your business provides an interesting product or service to pilots, flight crews, aircraft, or users of the Lumpkin County-Wimpys Airport, you should consider listing it here.  To start the listing process, click on the button below
 
Add a business
 

Other Pages about Lumpkin County-Wimpys Airport

Update a link
 
Copyright © AirNav, LLC. All rights reserved. Privacy Policy  Contact